Location: Caltech
(34.1382°N, 118.1253°W)
Time: 20:08:04
(UTC-08:00)

SO-50 - Visible Passes

Search period start: 31 January 2015 00:00
Search period end: 10 February 2015 00:00
Orbit: 596 x 698 km, 64.6° (Epoch: 31 January)

Date Brightness Start Highest point End Pass type
(mag) Time Alt. Az. Time Alt. Az. Time Alt. Az.
31 Jan ? 17:59:53 10° N 18:04:19 33° NE 18:08:47 10° ESE visible
31 Jan ? 19:40:42 10° NW 19:44:46 25° WSW 19:48:44 10° SSW visible
01 Feb ? 18:25:47 10° NNW 18:30:44 84° ENE 18:35:38 10° SSE visible
02 Feb ? 18:52:20 10° NW 18:56:53 37° WSW 19:01:20 10° S visible
03 Feb ? 19:20:18 10° WNW 19:22:53 14° WSW 19:25:11 10° SW visible
04 Feb ? 18:04:08 10° NW 18:08:58 53° WSW 18:13:43 10° SSE visible
05 Feb ? 18:31:21 10° WNW 18:35:00 20° WSW 18:38:28 10° SSW visible
08 Feb ? 06:14:18 10° SSE 06:17:31 20° ESE 06:20:56 10° ENE visible
08 Feb ? 18:11:57 10° W 18:13:04 10° WSW 18:13:50 10° WSW visible
